{"data":{"norad_id":66244,"epoch":"2026-05-25T02:55:17.573088Z","epoch_age_seconds":64700,"freshness":"FRESH","line1":"1 66244U 25245L   26145.12173117  .00014121  00000+0  48785-3 0  9994","line2":"2 66244  53.1611 288.5151 0001369  96.0818 264.0339 15.30208223 32752","mean_motion":15.30208223,"eccentricity":0.0001369,"inclination_deg":53.1611,"raan_deg":288.5151,"arg_perigee_deg":96.0818,"mean_anomaly_deg":264.0339,"bstar":0.00048785,"rev_number":3275,"period_min":94.104840005163,"perigee_km":474.25229659638,"apogee_km":476.12873767057,"semimajor_km":6853.3275171335,"source":"CELESTRAK","updated_at":"2026-05-25T13:38:21.135490Z"}}